{"data":{"norad_id":60211,"intl_designator":"2024-126A","name":"TIANHUI 5C","alt_names":[],"object_type":"PAYLOAD","status":"ACTIVE","operator":null,"country":"PRC","launch_date":"2024-07-04","launch_site_code":"TAISC","launch_vehicle":null,"mission":null,"orbit_class":"UNKNOWN","rcs_meters":null,"size_class":null,"mass_kg":null,"dimensions":null,"purposes":[],"wikipedia_slug":null,"has_3d_model":false,"image_url":null,"decayed_at":null,"tle_current":{"epoch":"2026-09-22T13:34:55.645248Z","epoch_age_seconds":102597,"freshness":"FRESH","line1":"1 60211U 24126A   26265.56592182  .00000135  00000+0  20803-4 0  9999","line2":"2 60211  97.8208 271.7451 0001546  88.7931 271.3462 14.87579951120368","mean_motion":14.87579951,"eccentricity":0.0001546,"inclination_deg":97.8208,"raan_deg":271.7451,"arg_perigee_deg":88.7931,"mean_anomaly_deg":271.3462,"bstar":2.0803e-5,"rev_number":12036,"period_min":96.801519745677,"perigee_km":604.41989707319,"apogee_km":606.5792374998,"semimajor_km":6983.6365672865,"source":"CELESTRAK","updated_at":"2026-09-23T09:00:20.459825Z"}}}